TRANSIT 2A

Satellite information

Favourite Embed

Satellite Type and Status

PAYLOADIN ORBIT

Key statistics

Satellite TRANSIT 2A at a glance.

Uptime

23859

Days in orbit

Revolutions

≈ 14.4

Per day

Orbit

LEO

Low Earth Orbit

Inclination

66.7

Latest

Satellite identification and parameters

Extended collection of information and parameters for TRANSIT 2A.

Object identification

Identified? True

Debris? False

Object name: TRANSIT 2A

International designator: 1960-007A

Object number (NORAD): 45

Object ID (CCSDS): 45

Country: UNITED STATES OF AMERICA (US)

Current information (Y/N): Y

RCS size: MEDIUM

Orbital parameters

Period: 100.301 minutes

Inclination: 66.6921 deg

SMA: 7150.939 km

Apoapsis: 953.344 km

Periapsis: 592.263 km

RAAN: 280.802 deg

Eccentricy: 0.0252471

Argument of periapsis: 334.4326 deg

Mean anomaly: 24.4459 deg

Mean motion: 14.35681698 rev/day

Mean motion (dot): 0.00001169 rev/day2

B* drag term: 0.00030715282 1/REarth

Two-line elements (TLE)

Creation date: Oct. 18, 2025, 2:17 a.m.

Reference frame: TEME

Reference center: EARTH

Epoch: Oct. 17, 2025, 11:17 p.m. UTC

TLE line 0: 0 TRANSIT 2A

TLE line 1: 1 00045U 60007A 25290.97051226 .00001169 00000-0 30715-3 0 9998

TLE line 2: 2 00045 66.6921 280.8020 0252471 334.4326 24.4459 14.35681698345277

Live tracking on map

Real-time ground track for satellite TRANSIT 2A.

In-orbit conjunctions

A list of the most updated potential collisions computed for object TRANSIT 2A.

Target Orbit TCA Probability of collision Miss distance Type
IRIDIUM 38 LEO 2025-08-18 06:42:11 0.0001161342 61.0 (m) PAYLOAD
FENGYUN 1C DEB SSO 2025-08-06 23:44:51 0.002284857 214.0 (m) DEBRIS
COSMOS 249 DEB * LEO 2025-03-20 03:52:54 0.0001050711 988.0 (m) DEBRIS
CZ-6A DEB SSO 2024-10-26 06:30:05 0.0001367599 192.0 (m) DEBRIS
CZ-6A DEB LEO 2024-10-11 09:09:40 0.0004200907 852.0 (m) DEBRIS

Associated space launch

The Transit system was the first satellite navigation system to be used operationally. The system was primarily used by the U.S. Navy to provide accurate location information to its Polaris ballistic missile submarines, and it was also used as a navigation system by the Navy's surface ships, as well as for hydrographic survey and geodetic surveying.

TRANSIT 2A was lifted into orbit during the mission ‘Thor DM-21 Ablestar | Transit 2A’, on board a Thor DM-21 Ablestar space rocket.

The launch took place on June 22, 1960, 5:54 a.m. from Space Launch Complex 17B.

For more information about the launch, click the button.

Launch to space Thor DM-21 Ablestar | Transit 2A
Thor DM-21 Ablestar | Transit 2A

Agency: N/A

Status: Launch Successful

Launch date: June 22, 1960, 5:54 a.m. UTC

Rocket: Thor DM-21 Ablestar

Launch pad: Space Launch Complex 17B

Location: Cape Canaveral SFS, FL, USA

...

Latest news about this satellite

There are no fresh news available about this satellite. Check back as we update our databases every day.


Newsletter sign-up

Weekly statistics, charts and insights to help you stay on top of the space industry.